DW2659 Weather Reports


Display with metric or nautical units.
time (UTC)temp
F
wind
direction
speed
MPH
gust
MPH
rain 1hr
in
rain 24hr
in
rain mn
in
humidity
%
barometer
mb
20260906202904 99 353 0.0 2.0 0.00 0.00 0.00 45 1009.5
20260906201403 97 91 0.0 7.0 0.00 0.00 0.00 44 1010.0
20260906200904 98 86 1.0 3.0 0.00 0.00 0.00 45 1010.0
20260906200404 99 65 1.0 3.0 0.00 0.00 0.00 44 1010.0
20260906195904 99 150 1.0 3.0 0.00 0.00 0.00 44 1010.2
20260906195404 99 54 1.0 3.0 0.00 0.00 0.00 42 1010.2
20260906194905 99 34 1.0 3.0 0.00 0.00 0.00 44 1010.2
20260906194404 98 83 0.0 3.0 0.00 0.00 0.00 44 1010.3
20260906193904 98 26 1.0 3.0 0.00 0.00 0.00 44 1010.9
20260906193404 98 60 2.0 3.0 0.00 0.00 0.00 44 1010.9
20260906192905 98 69 0.0 2.0 0.00 0.00 0.00 44 1010.9
20260906191405 98 64 1.0 3.0 0.00 0.00 0.00 44 1010.9
20260906190904 98 5 1.0 3.0 0.00 0.00 0.00 46 1010.9
20260906190403 98 62 1.0 3.0 0.00 0.00 0.00 43 1010.9
20260906185904 98 57 1.0 3.0 0.00 0.00 0.00 40 1011.1
20260906185405 98 312 1.0 3.0 0.00 0.00 0.00 43 1011.1
20260906184903 97 41 1.0 3.0 0.00 0.00 0.00 42 1011.1
20260906184404 97 51 2.0 5.0 0.00 0.00 0.00 44 1011.2
20260906183905 96 58 1.0 6.0 0.00 0.00 0.00 48 1011.2
20260906183404 96 131 1.0 5.0 0.00 0.00 0.00 46 1011.2
20260906182904 96 29 1.0 3.0 0.00 0.00 0.00 48 1011.3
20260906182406 96 349 0.0 3.0 0.00 0.00 0.00 46 1011.4
20260906181903 95 61 1.0 2.0 0.00 0.00 0.00 50 1011.4
20260906181402 95 64 3.0 5.0 0.00 0.00 0.00 49 1011.4
20260906180904 95 71 1.0 6.0 0.00 0.00 0.00 49 1011.8
20260906180403 94 132 2.0 6.0 0.00 0.00 0.00 48 1011.8
20260906175902 94 83 1.0 3.0 0.00 0.00 0.00 50 1011.8
20260906174402 95 50 1.0 5.0 0.00 0.00 0.00 49 1012.0
20260906173903 95 63 2.0 3.0 0.00 0.00 0.00 52 1012.0
20260906173403 95 286 1.0 3.0 0.00 0.00 0.00 49 1012.0
20260906172903 94 55 1.0 5.0 0.00 0.00 0.00 51 1012.2
20260906172404 94 45 1.0 3.0 0.00 0.00 0.00 50 1012.2
20260906171902 94 60 1.0 3.0 0.00 0.00 0.00 52 1012.2
20260906171403 93 29 2.0 3.0 0.00 0.00 0.00 53 1012.2
20260906170402 93 60 2.0 3.0 0.00 0.00 0.00 51 1012.2
20260906165404 93 17 1.0 3.0 0.00 0.00 0.00 52 1012.4
20260906164403 92 58 1.0 5.0 0.00 0.00 0.00 53 1012.4
20260906163403 93 68 2.0 3.0 0.00 0.00 0.00 53 1012.7
20260906162903 92 38 1.0 3.0 0.00 0.00 0.00 53 1012.7
20260906161403 92 70 1.0 3.0 0.00 0.00 0.00 56 1012.9
20260906160403 92 59 1.0 3.0 0.00 0.00 0.00 57 1012.9
20260906155902 91 53 1.0 3.0 0.00 0.00 0.00 56 1012.8
20260906155403 91 61 1.0 3.0 0.00 0.00 0.00 59 1013.0
20260906154902 90 78 0.0 2.0 0.00 0.00 0.00 58 1013.0
20260906154402 91 38 2.0 5.0 0.00 0.00 0.00 58 1013.0
20260906153402 90 17 1.0 3.0 0.00 0.00 0.00 59 1013.0
20260906152903 91 85 1.0 3.0 0.00 0.00 0.00 59 1013.0
20260906152404 90 60 1.0 3.0 0.00 0.00 0.00 61 1013.0
20260906151903 90 64 1.0 3.0 0.00 0.00 0.00 62 1013.0
20260906151402 89 44 1.0 2.0 0.00 0.00 0.00 63 1013.0
20260906150904 89 58 1.0 3.0 0.00 0.00 0.00 62 1013.0
20260906150402 90 55 1.0 3.0 0.00 0.00 0.00 61 1013.0
20260906145903 89 40 1.0 3.0 0.00 0.00 0.00 62 1013.0
20260906145403 89 53 1.0 3.0 0.00 0.00 0.00 61 1013.0
20260906144903 89 17 1.0 3.0 0.00 0.00 0.00 63 1013.0
20260906144403 88 6 0.0 3.0 0.00 0.00 0.00 63 1012.9
20260906143904 87 41 1.0 2.0 0.00 0.00 0.00 67 1012.9
20260906143403 87 64 1.0 3.0 0.00 0.00 0.00 65 1012.9
20260906142903 87 85 1.0 2.0 0.00 0.00 0.00 65 1012.9
20260906141902 87 15 1.0 2.0 0.00 0.00 0.00 68 1012.9
20260906141402 86 41 1.0 3.0 0.00 0.00 0.00 68 1013.0
20260906140403 85 76 1.0 2.0 0.00 0.00 0.00 70 1013.1
20260906135903 85 76 1.0 3.0 0.00 0.00 0.00 71 1013.2
20260906135405 84 75 0.0 1.0 0.00 0.00 0.00 73 1013.2
20260906134902 83 75 1.0 2.0 0.00 0.00 0.00 74 1013.1
20260906133904 81 101 2.0 3.0 0.00 0.00 0.00 78 1013.2
20260906133402 80 101 1.0 2.0 0.00 0.00 0.00 80 1013.2
20260906132903 79 101 0.0 1.0 0.00 0.00 0.00 83 1013.3
20260906132404 78 101 0.0 2.0 0.00 0.00 0.00 84 1013.3
20260906131903 78 101 0.0 1.0 0.00 0.00 0.00 86 1013.3
20260906131403 77 91 1.0 2.0 0.00 0.00 0.00 87 1013.1
20260906130402 76 240 0.0 1.0 0.00 0.00 0.00 89 1013.1
20260906124903 75 240 1.0 2.0 0.00 0.00 0.00 90 1013.1
20260906124402 74 240 0.0 1.0 0.00 0.00 0.00 92 1013.0
20260906123403 74 240 0.0 1.0 0.00 0.00 0.00 92 1013.0
20260906122403 74 240 0.0 1.0 0.00 0.00 0.00 92 1012.9
20260906121903 73 240 0.0 1.0 0.00 0.00 0.00 92 1012.9
20260906120904 73 240 0.0 0.0 0.00 0.00 0.00 92 1012.8
20260906115903 73 240 0.0 0.0 0.00 0.00 0.00 92 1012.6
20260906115405 73 240 0.0 0.0 0.00 0.00 0.00 92 1012.6
20260906114903 73 240 0.0 0.0 0.00 0.00 0.00 91 1012.6
20260906114403 73 240 0.0 0.0 0.00 0.00 0.00 91 1012.4
20260906113902 73 240 0.0 0.0 0.00 0.00 0.00 91 1012.4
20260906113404 73 240 0.0 0.0 0.00 0.00 0.00 91 1012.4
20260906112903 73 240 0.0 0.0 0.00 0.00 0.00 91 1012.4
20260906111904 73 240 1.0 1.0 0.00 0.00 0.00 91 1012.4
20260906110405 73 240 0.0 0.0 0.00 0.00 0.00 91 1012.1
20260906105403 73 240 0.0 0.0 0.00 0.00 0.00 91 1012.1
20260906103903 73 240 0.0 0.0 0.00 0.00 0.00 90 1012.2
20260906103403 73 240 0.0 0.0 0.00 0.00 0.00 90 1012.2
20260906102904 73 240 0.0 1.0 0.00 0.00 0.00 90 1012.2
20260906101404 74 240 0.0 0.0 0.00 0.00 0.00 90 1012.2
20260906100903 74 240 0.0 1.0 0.00 0.00 0.00 90 1012.3
20260906100403 74 240 0.0 1.0 0.00 0.00 0.00 90 1012.3
20260906095403 74 240 0.0 1.0 0.00 0.00 0.00 89 1012.3
20260906094903 74 240 0.0 1.0 0.00 0.00 0.00 89 1012.3
20260906094403 74 240 0.0 1.0 0.00 0.00 0.00 89 1012.4
20260906093905 74 240 1.0 2.0 0.00 0.00 0.00 89 1012.4
20260906093403 74 240 0.0 1.0 0.00 0.00 0.00 89 1012.4
20260906092903 74 240 0.0 2.0 0.00 0.00 0.00 89 1012.5
20260906092404 74 145 0.0 2.0 0.00 0.00 0.00 90 1012.5
20260906091903 74 126 0.0 1.0 0.00 0.00 0.00 90 1012.5
20260906091403 74 127 1.0 2.0 0.00 0.00 0.00 89 1012.6
20260906090904 74 209 0.0 0.0 0.00 0.00 0.00 90 1012.6
20260906090403 74 209 0.0 1.0 0.00 0.00 0.00 90 1012.6
20260906085404 73 106 0.0 1.0 0.00 0.00 0.00 90 1012.6
20260906084903 73 106 0.0 2.0 0.00 0.00 0.00 90 1012.6
20260906083904 73 306 1.0 5.0 0.00 0.00 0.00 91 1012.3
20260906082903 73 57 1.0 2.0 0.00 0.00 0.00 91 1012.3
20260906082403 73 121 0.0 1.0 0.00 0.00 0.00 91 1012.3
20260906081904 73 121 1.0 1.0 0.00 0.00 0.00 91 1012.3
20260906081403 73 121 0.0 0.0 0.00 0.00 0.00 91 1012.4
20260906080405 73 121 0.0 1.0 0.00 0.00 0.00 91 1012.4
20260906075403 73 121 1.0 2.0 0.00 0.00 0.00 91 1012.4
20260906074903 73 197 1.0 2.0 0.00 0.00 0.00 92 1012.4
20260906074404 73 197 1.0 3.0 0.00 0.00 0.00 92 1012.0
20260906073903 73 294 1.0 2.0 0.00 0.00 0.00 92 1012.0
20260906072903 73 119 0.0 0.0 0.00 0.00 0.00 92 1011.9
20260906072404 73 119 0.0 1.0 0.00 0.00 0.00 92 1011.9
20260906071903 73 119 0.0 1.0 0.00 0.00 0.00 92 1011.9
20260906071403 72 119 0.0 1.0 0.00 0.00 0.00 92 1012.1
20260906070904 72 119 0.0 0.0 0.00 0.00 0.00 92 1012.1
20260906070403 73 119 0.0 0.0 0.00 0.00 0.00 92 1012.1
20260906065903 72 119 0.0 0.0 0.00 0.00 0.00 92 1012.3
20260906065404 73 119 0.0 0.0 0.00 0.00 0.00 92 1012.3
20260906064404 73 119 1.0 1.0 0.00 0.00 0.00 92 1012.3
20260906063403 73 119 0.0 1.0 0.00 0.00 0.00 91 1012.4
20260906062903 73 119 1.0 1.0 0.00 0.00 0.00 91 1012.4
20260906062404 73 119 1.0 1.0 0.00 0.00 0.00 91 1012.4
20260906061903 73 119 0.0 0.0 0.00 0.00 0.00 91 1012.4
20260906061403 73 119 0.0 1.0 0.00 0.00 0.00 91 1012.4
20260906060904 73 119 1.0 1.0 0.00 0.00 0.00 91 1012.4
20260906060403 73 119 0.0 1.0 0.00 0.00 0.00 91 1012.4
20260906055405 73 119 0.0 1.0 0.00 0.00 0.00 91 1012.6
20260906054904 73 119 1.0 2.0 0.00 0.00 0.00 91 1012.6
20260906054403 73 119 0.0 1.0 0.00 0.00 0.00 90 1012.7
20260906053904 73 119 1.0 2.0 0.00 0.00 0.00 91 1012.7
20260906053403 73 119 1.0 2.0 0.00 0.00 0.00 90 1012.7
20260906052903 73 119 0.0 0.0 0.00 0.00 0.00 90 1012.7
20260906052404 73 119 0.0 1.0 0.00 0.00 0.00 90 1012.7
20260906051904 73 119 0.0 1.0 0.00 0.00 0.00 90 1012.7
20260906051404 73 119 0.0 0.0 0.00 0.00 0.00 90 1012.7
20260906050904 73 119 0.0 2.0 0.00 0.00 0.00 90 1012.7
20260906050403 73 119 1.0 2.0 0.00 0.00 0.00 90 1012.7
20260906045903 73 119 0.0 1.0 0.00 0.00 0.00 90 1013.2
20260906045404 73 119 1.0 1.0 0.00 0.00 0.00 90 1013.2
20260906044903 74 119 1.0 1.0 0.00 0.00 0.00 90 1013.2
20260906044403 74 119 1.0 1.0 0.00 0.00 0.00 90 1013.2
20260906043905 74 119 0.0 1.0 0.00 0.00 0.00 89 1013.2
20260906043403 74 119 0.0 2.0 0.00 0.00 0.00 89 1013.2
20260906042903 74 119 0.0 2.0 0.00 0.00 0.00 89 1013.2
20260906042405 74 119 0.0 2.0 0.00 0.00 0.00 89 1013.3
20260906041403 74 11 0.0 1.0 0.00 0.00 0.00 89 1013.2
20260906040904 74 11 1.0 2.0 0.00 0.00 0.00 89 1013.2
20260906040403 74 11 1.0 1.0 0.00 0.00 0.00 89 1013.2
20260906035903 74 11 1.0 1.0 0.00 0.00 0.00 89 1013.1
20260906034904 74 11 0.0 1.0 0.00 0.00 0.00 89 1013.1
20260906034403 74 11 0.0 2.0 0.00 0.00 0.00 88 1013.0
20260906033903 74 11 1.0 2.0 0.00 0.00 0.00 88 1013.0
20260906033404 74 11 0.0 1.0 0.00 0.00 0.00 87 1013.0
20260906032903 74 11 1.0 1.0 0.00 0.00 0.00 87 1012.9
20260906032403 75 11 0.0 1.0 0.00 0.00 0.00 87 1012.9
20260906031905 75 11 0.0 0.0 0.00 0.00 0.00 87 1012.9
20260906030903 75 11 1.0 1.0 0.00 0.00 0.00 86 1012.9
20260906030405 75 11 0.0 0.0 0.00 0.00 0.00 86 1012.9
20260906025903 75 11 0.0 0.0 0.00 0.00 0.00 85 1012.9
20260906024905 75 11 0.0 1.0 0.00 0.00 0.00 85 1012.9
20260906023904 76 11 0.0 0.0 0.00 0.00 0.00 85 1012.7
20260906022904 76 11 0.0 0.0 0.00 0.00 0.00 84 1012.5
20260906022404 76 11 0.0 0.0 0.00 0.00 0.00 84 1012.5
20260906021903 76 11 0.0 0.0 0.00 0.00 0.00 84 1012.5
20260906021405 76 11 0.0 0.0 0.00 0.00 0.00 84 1012.5
20260906020903 77 11 0.0 0.0 0.00 0.00 0.00 84 1012.5
20260906020404 77 11 0.0 0.0 0.00 0.00 0.00 83 1012.5
20260906015905 77 11 0.0 1.0 0.00 0.00 0.00 83 1012.7
20260906015404 77 11 1.0 2.0 0.00 0.00 0.00 83 1012.6
20260906014904 77 11 0.0 0.0 0.00 0.00 0.00 82 1012.6
20260906014405 77 11 0.0 0.0 0.00 0.00 0.00 82 1012.4
20260906013904 77 11 0.0 1.0 0.00 0.00 0.00 82 1012.4
20260906013405 77 11 0.0 1.0 0.00 0.00 0.00 82 1012.4
20260906012904 78 11 0.0 1.0 0.00 0.00 0.00 82 1012.2
20260906011905 78 11 0.0 0.0 0.00 0.00 0.00 82 1012.2
20260906010903 78 11 0.0 0.0 0.00 0.00 0.00 83 1011.4
20260906010405 78 11 0.0 0.0 0.00 0.00 0.00 83 1011.4
20260906005904 78 11 0.0 0.0 0.00 0.00 0.00 83 1011.4
20260906005403 78 11 0.0 1.0 0.00 0.00 0.00 82 1011.4
20260906004904 78 11 0.0 1.0 0.00 0.00 0.00 83 1011.4
20260906004403 79 11 0.0 0.0 0.00 0.00 0.00 82 1011.3
20260906003903 79 11 0.0 0.0 0.00 0.00 0.00 81 1011.3
20260906003405 79 11 0.0 2.0 0.00 0.00 0.00 81 1011.3
20260906002904 80 11 0.0 1.0 0.00 0.00 0.00 80 1011.4
20260906002403 80 11 1.0 2.0 0.00 0.00 0.00 80 1011.5
20260906001905 80 11 0.0 2.0 0.00 0.00 0.00 79 1011.5
20260906001403 81 11 0.0 0.0 0.00 0.00 0.00 79 1011.6
20260906000903 81 11 0.0 1.0 0.00 0.00 0.00 78 1011.6
20260906000405 81 11 0.0 1.0 0.00 0.00 0.00 77 1011.6
20260905235903 82 11 0.0 1.0 0.00 0.00 0.00 76 1011.8
20260905235403 82 11 1.0 2.0 0.00 0.00 0.00 75 1011.8
20260905234905 83 11 1.0 2.0 0.00 0.00 0.00 74 1011.8
20260905234404 83 11 1.0 2.0 0.00 0.00 0.00 73 1011.8
20260905233903 83 11 1.0 2.0 0.00 0.00 0.00 71 1011.9
20260905233404 84 11 1.0 1.0 0.00 0.00 0.00 70 1011.7
20260905232905 84 11 0.0 0.0 0.00 0.00 0.00 70 1011.7
20260905232404 84 11 0.0 0.0 0.00 0.00 0.00 69 1011.7
20260905231405 85 11 0.0 0.0 0.00 0.00 0.00 68 1011.4
20260905225905 87 11 1.0 2.0 0.00 0.00 0.00 64 1011.4
20260905225403 87 11 1.0 2.0 0.00 0.00 0.00 64 1011.0
20260905224904 88 11 1.0 2.0 0.00 0.00 0.00 62 1011.0
20260905224405 88 11 1.0 2.0 0.00 0.00 0.00 63 1011.0
20260905222904 90 11 1.0 3.0 0.00 0.00 0.00 60 1011.7
20260905222404 90 11 1.0 3.0 0.00 0.00 0.00 61 1011.7
20260905221904 91 11 1.0 2.0 0.00 0.00 0.00 60 1011.7
20260905221405 91 11 0.0 1.0 0.00 0.00 0.00 60 1012.1
20260905220904 91 11 1.0 2.0 0.00 0.00 0.00 60 1012.1
20260905220404 91 11 1.0 3.0 0.00 0.00 0.00 60 1012.1
20260905215403 90 11 1.0 2.0 0.00 0.00 0.00 60 1012.1
20260905214904 90 11 1.0 2.0 0.00 0.00 0.00 61 1012.1
20260905213904 88 11 1.0 3.0 0.00 0.00 0.00 64 1012.1
20260905213404 87 11 2.0 3.0 0.00 0.00 0.00 66 1012.1
20260905212905 86 9 2.0 3.0 0.00 0.00 0.00 68 1011.9
20260905212404 85 22 2.0 3.0 0.00 0.00 0.00 66 1011.9
20260905211904 86 22 3.0 5.0 0.00 0.00 0.00 65 1011.9
20260905211405 88 33 3.0 5.0 0.00 0.00 0.00 65 1011.7
20260905210904 89 31 2.0 5.0 0.00 0.00 0.00 61 1011.7
20260905205905 91 19 7.0 12.0 0.00 0.00 0.00 51 1011.5
20260905205404 94 24 6.0 10.0 0.00 0.00 0.00 49 1011.5
20260905204904 97 16 6.0 10.0 0.00 0.00 0.00 45 1011.5
20260905204405 99 12 6.0 12.0 0.00 0.00 0.00 45 1011.5
20260905203904 99 19 2.0 7.0 0.00 0.00 0.00 47 1011.5
20260905203404 98 47 2.0 3.0 0.00 0.00 0.00 49 1011.5